Dewpoint
27 26 26 25 25 23 21 21 22 21 22 22 22 23 22 20 18 18 16 15 16 16
26 26 25 24 25 25 24 22 22 22 22 23 24 23 21 19 18 18 17 17 17 16
26 25 25 25 24 24 23 21 21 21 20 20 20 20 20 20 20 19 19 18 17 17
24 24 24 23 23 23 22 21 20 19 19 19 19 20 19 19 19 18 18 18 17 17
22 22 22 22 22 22 20 20 19 18 18 19 19 19 19 18 19 19 18 17 17 17
20 20 20 20 20 19 19 18 18 19 19 19 21 20 20 23 26 21 16 17 17 17
19 19 19 19 19 19 19 18 20 23 24 25 27 28 28 25 25 21 17 17 18 19
23 23 22 22 23 24 24 25 25 25 26 28 28 28 27 26 21 19 19 20 20 22
23 23 23 24 24 24 25 25 26 26 26 26 27 28 26 25 26 24 21 21 22 23
22 23 23 23 23 24 24 25 25 25 25 25 25 27 27 27 25 24 23 24 27 28
22 23 23 23 23 23 24 24 24 24 25 25 25 26 31 32 24 24 26 28 28 29
22 22 22 22 22 23 23 23 24 24 24 24 25 27 28 29 29 26 27 28 29 28
19 20 20 21 21 22 22 22 23 24 23 24 23 25 27 29 27 26 27 28 28 29
17 19 19 20 21 21 21 22 22 23 23 23 25 24 27 30 26 25 25 26 26 26
Wind_Speed
14 14 14 16 15 14 13 11 12 12 13 14 13 12 11 8 9 9 10 9 7 7
11 13 14 13 12 12 11 12 11 11 13 12 11 12 12 10 9 9 8 8 8 7
8 8 9 10 11 12 12 13 14 13 13 12 12 12 13 9 10 10 8 7 8 7
9 8 8 8 9 10 11 13 14 13 13 13 13 13 13 11 10 10 9 9 7 6
8 7 6 6 8 9 10 10 12 12 12 12 12 12 13 14 10 7 4 5 7 7
7 6 5 5 8 9 11 12 12 13 14 13 12 12 11 10 8 11 10 9 8 7
9 7 6 6 7 9 9 11 11 12 14 14 11 8 7 6 4 5 8 10 9 8
9 10 10 10 10 11 11 12 13 15 12 10 8 6 8 7 9 8 7 6 6 6
12 12 12 13 13 13 13 13 13 10 9 8 5 7 11 8 5 3 7 8 6 4
11 12 11 11 12 10 10 10 9 8 8 8 5 8 9 13 9 10 7 6 6 7
9 9 9 9 9 7 6 7 7 7 6 7 7 9 9 10 12 11 9 8 7 8
7 7 7 7 5 3 3 3 4 4 7 7 6 7 9 10 10 12 11 11 9 9
9 7 7 5 4 1 3 5 4 4 6 6 7 8 9 5 6 9 8 7 8 11
8 5 4 3 2 1 1 2 3 3 4 6 5 7 8 9 9 8 7 8 8 7
Wind_Direction
148 153 157 163 168 178 184 175 165 160 155 152 150 148 144 142 133 132 136 137 125 120
147 154 162 160 159 166 162 164 163 159 151 147 148 143 143 139 134 124 133 131 124 120
130 132 138 145 161 159 154 156 157 154 147 142 138 140 135 133 130 132 125 124 135 125
102 117 134 151 156 159 152 156 157 153 149 147 145 142 137 132 136 134 141 150 138 133
79 93 113 135 143 148 149 148 149 144 140 138 138 139 144 132 123 109 133 152 150 156
61 75 95 124 134 136 140 142 140 138 137 132 128 126 120 124 153 197 174 172 163 177
61 75 91 107 118 124 132 135 130 125 122 121 121 121 131 147 179 208 197 189 182 179
65 77 88 92 93 99 109 119 122 120 115 118 128 150 160 186 197 178 166 168 171 166
80 84 89 93 93 93 93 96 102 106 119 128 143 179 178 165 162 173 203 189 182 156
74 81 83 89 94 96 100 107 108 114 133 151 164 196 196 207 190 199 201 188 184 209
57 70 73 78 84 92 107 122 138 148 165 188 213 228 250 220 181 182 190 197 215 208
47 73 81 89 102 111 139 140 168 189 193 196 208 247 257 262 192 195 210 214 203 187
24 54 77 88 100 86 151 166 165 187 203 215 223 243 257 169 162 187 185 180 191 207
11 10 40 60 64 163 140 181 190 207 217 222 229 226 255 205 175 182 181 190 194 218